Regional Weather Roundup
Issued by NWS

Home | Current Version | Previous Version | Graphics & Text | Print | Product List | Glossary On
Versions: 1 2 3 4 5 6 7 8 9 10 11 12 13 14 15 16 17 18 19 20 21 22 23 24 25 26 27 28 29 30 31 32 33 34 35 36 37 38 39 40 41 42 43 44 45 46 47 48 49 50
000
ASUS43 KLOT 011321
RWRIL

ILLINOIS REGIONAL WEATHER ROUNDUP
NATIONAL WEATHER SERVICE CHICAGO/ROMEOVILLE IL
800 AM CDT WED APR 01 2015

NOTE: "FAIR" INDICATES FEW OR NO CLOUDS BELOW 12,000 FEET WITH NO
SIGNIFICANT WEATHER AND/OR OBSTRUCTIONS TO VISIBILITY.

* THESE STATIONS ARE NOT UNDER NWS QUALITY CONTROL. THEY ALSO MAY NOT
  REPORT WEATHER SUCH AS PRECIPITATION OR FOG.

ILZ001-002-007-009-015-016-024-011400-
NORTHWEST ILLINOIS

CITY           SKY/WX    TMP DP  RH WIND       PRES   REMARKS
MOLINE         SUNNY     46  33  60 E5        29.97R
STERLING*      SUNNY     45  37  76 S3        30.00S
SAVANNA*       SUNNY     38  34  87 CALM      29.99S
$$

ILZ003-004-008-010-011-017-018-011400-
NORTH CENTRAL ILLINOIS

CITY           SKY/WX    TMP DP  RH WIND       PRES   REMARKS
ROCKFORD       MOSUNNY   41  35  79 CALM      30.02R
FREEPORT*      SUNNY     36  33  88 CALM      30.01R
ROCHELLE*      SUNNY     41  36  84 SE7       30.02R
DE KALB*       SUNNY     40  35  83 S10       30.03R
PERU*          SUNNY     43  36  76 S6        30.02F
$$

ILZ005-006-012>014-019>023-011400-
NORTHEAST ILLINOIS

CITY           SKY/WX    TMP DP  RH WIND       PRES   REMARKS
CHICAGO-OHARE  SUNNY     43  37  79 CALM      30.04R
CHICAGO-MIDWAY SUNNY     47  38  71 S5        30.05R
AURORA         SUNNY     38  33  82 CALM      30.04R
LANSING*       SUNNY     44  35  71 SW8       30.06R
JOLIET*        SUNNY     46  39  77 S5        30.05R
WAUKEGAN       SUNNY     40  35  83 NE6       30.04R
DUPAGE AIRPORT SUNNY     39  35  86 CALM      30.03R
KANKAKEE*      SUNNY     43  37  77 S13       30.07R
WHEELING       SUNNY     40  35  83 CALM      30.06R
MORRIS*        SUNNY     41  36  80 S6        30.04R
ROMEOVILLE*    SUNNY     44  37  77 S7        30.05R
NORTHERLY ISL    N/A     43  36  76 SE1         N/A
$$

LMZ740>746-011400-
SOUTHERN LAKE MICHIGAN

STATION/POSITION SKY/WX   TEMP    WIND        PRES    VSBY  WAVE
                          AIR SEA DIR/SP/G                  HT/PER
                          (F)     (DEG/KT/KT) (MB)    (MI)  (FT/S)
HARRISON CRIB              45     110/  4/  5   N/A
BURNHAM HARBOR             43      CALM  /  3   N/A
CALUMET HARBOR             45     140/  2/  3 1016.7R
BURNS HARBOR               42      CALM  /  3 1017.9
MICHIGAN CITY              42      80/  1/  2   N/A
$$

ILZ025>027-034>036-040-047-049-050-058-095>099-011400-
WEST-CENTRAL ILLINOIS

CITY           SKY/WX    TMP DP  RH WIND       PRES   REMARKS
QUINCY         FAIR      54  35  48 S9        29.99R
GALESBURG*     SUNNY     45  35  68 SE6       29.99R
MACOMB*        SUNNY     47  38  70 CALM      30.01R
JACKSONVILLE*  SUNNY     54  39  56 S6        30.01S
PITTSFIELD*    MOSUNNY   52  37  54 S3        30.02R
$$

ILZ028>032-037-038-041>044-048-051>054-059>061-011400-
CENTRAL ILLINOIS

CITY           SKY/WX    TMP DP  RH WIND       PRES   REMARKS
PONTIAC        SUNNY     46  39  78 S7        30.06R
BLOOMINGTON    SUNNY     47  39  73 S12       30.06R
DECATUR        SUNNY     50  37  61 S13       30.07R
PEORIA         SUNNY     49  37  63 S7        30.02S
LACON*         SUNNY     48  36  63 S5        30.01S
LINCOLN*       SUNNY     46  39  76 S7        30.05R
SPRINGFIELD    SUNNY     51  38  60 SE8       30.03R
TAYLORVILLE    SUNNY     46  36  66 SE9       30.04S
$$

ILZ033-039-045-046-055>057-062-063-011400-
EAST-CENTRAL ILLINOIS

CITY           SKY/WX    TMP DP  RH WIND       PRES   REMARKS
CHAMPAIGN      SUNNY     45  37  73 S12       30.07R
DANVILLE*      SUNNY     45  37  74 S9        30.06R
RANTOUL*       SUNNY     44  38  81 S7        30.08R
MATTOON        SUNNY     48  37  65 S13       30.07R
PARIS*         SUNNY     47  40  76 S13       30.10R
$$

ILZ079-100>102-011400-
SOUTHWEST ILLINOIS

CITY           SKY/WX    TMP DP  RH WIND       PRES   REMARKS
ALTON          MOSUNNY   46  41  81 CALM      30.03R
BELLEVILLE     MOSUNNY   46  46  98 S2        30.04R
CAHOKIA*       MOSUNNY   49  42  77 CALM      30.03R
SPARTA*        MOSUNNY   50  38  64 SE5       30.05R
$$

ILZ064>066-069>071-074>076-080>082-084>086-088>090-092>094-011400-
SOUTH-CENTRAL ILLINOIS

CITY           SKY/WX    TMP DP  RH WIND       PRES   REMARKS
CARBONDALE     MOSUNNY   46  41  82 CALM      30.05S
CAIRO*         MOSUNNY   49  44  82 NE5       30.06R
EFFINGHAM*     SUNNY     50  35  57 SE10G17   30.09S
MARION         PTSUNNY   52  39  62 SE9       30.07R
MT. VERNON     SUNNY     52  39  62 SE7       30.08R
CENTRALIA*     SUNNY     50  37  60 SE6       30.05S
SALEM*         SUNNY     51  37  60 SE6       30.06S
METROPOLIS*    MOSUNNY   51  41  69 E3        30.06R
$$

ILZ067-068-072-073-078-083-087-091-011400-
SOUTHEAST ILLINOIS

CITY           SKY/WX    TMP DP  RH WIND       PRES   REMARKS
LAWRENCEVILLE  SUNNY     47  40  76 SE6       30.11S
FLORA*         SUNNY     47  40  75 SE7       30.08S
FAIRFIELD*     SUNNY     50  40  69 SE6       30.07S
HARRISBURG*    SUNNY     49  42  74 CALM      30.09R
ROBINSON*      SUNNY     47  39  74 S8        30.11S
CARMI*         SUNNY     49  38  68 SE7       30.08S
$$

ABBREVIATIONS USED IN REMARKS
   TC - TEMPERATURE IN CELSIUS
  WCI - WIND CHILL INDEX
   HX - HEAT INDEX
  VSB - VISIBILITY
$$




USA.gov is the U.S. government's official web portal to all federal, state and local government web resources and services.